Back to catalog

STARLINK-38289

AliveCommunicationsSSO
NORAD 100313·PAYLOAD·🇺🇸 United States

Launched Aug 12, 2026 from Vandenberg Space Force Base

Loading…

Next Passes (next 24 hours)

TLE

FreshSource: Space-Track

Epoch: Sep 14, 2026, 15:46 UTC

1 A0313U 26184N   26257.65751276  .00020637  00000-0  57185-3 0  9996
2 A0313  97.2834 122.8378 0001803  99.5640 260.5808 15.36982175  6460

Track STARLINK-38289 in real time with AllMySat

Download on the App Store